Weather History for LTCD - March, 2013

Change the Weather History Date:

Wednesday, March 6, 2013

  Actual Average Record
Temperature  
Mean Temperature 28 °F -  
Max Temperature 36 °F 52 °F - ()
Min Temperature 19 °F 33 °F - ()
Degree Days  
Heating Degree Days 38    
Moisture  
Dew Point 11 °F    
Average Humidity 50    
Maximum Humidity 74    
Minimum Humidity 18    
Precipitation  
Precipitation 0.00 in 0.05 in - ()
Sea Level Pressure  
Sea Level Pressure 30.28 in    
Wind  
Wind Speed 11 mph ()    
Max Wind Speed 20 mph    
Max Gust Speed -    
Visibility 6.3 miles    
Events      
T = Trace of Precipitation, MM = Missing Value Source: Averaged Metar Reports

Daily Weather History Graph

Daily Weather History Graph

Search for Another Location

Airport or City:

Trip Planner

Search our weather history database for the weather conditions in past years. The results will help you decide how hot, cold, wet, or windy it might be!

Date:

Astronomy

Mar. 06, 2013 Rise Set
Actual Time 5:47 AM EET 5:19 PM EET
Civil Twilight 5:20 AM EET 5:46 PM EET
Nautical Twilight 4:49 AM EET 6:17 PM EET
Astronomical Twilight 4:18 AM EET 6:48 PM EET
Moon 1:36 AM EET (3/6) 11:38 AM EET (3/6)
Length of Visible Light 12h 25m
Length of Day
11h 31m
Waning Crescent, 33% of the Moon is Illuminated
Mar 6
Waning Crescent
Mar 11
New
Mar 19
First Quarter
Mar 27
Full
Apr 3
Last Quarter

Hourly Weather History & Observations

Time (EET) Temp. Windchill Dew Point Humidity Pressure Visibility Wind Dir Wind Speed Gust Speed Precip Events Conditions
12:50 AM 23.0 °F 10.6 °F 10.4 °F 59% 30.21 in 6.2 mi NW 13.8 mph - N/A   Scattered Clouds
1:50 AM 23.0 °F 10.6 °F 10.4 °F 59% 30.21 in 6.2 mi WNW 13.8 mph - N/A   Scattered Clouds
2:00 AM 24 °F - 10 °F 40%  in 6 mi WNW 13.8 mph - -   Partly Cloudy
2:50 AM 23.0 °F 11.7 °F 10.4 °F 59% 30.21 in 6.2 mi WNW 11.5 mph - N/A   Scattered Clouds
3:50 AM 21.2 °F 9.5 °F 10.4 °F 63% 30.24 in 6.2 mi NW 11.5 mph - N/A   Partly Cloudy
4:50 AM 21.2 °F 8.9 °F 12.2 °F 68% 30.24 in - NW 12.7 mph - N/A   Clear
5:50 AM 19.4 °F 6.6 °F 10.4 °F 68% 30.27 in - NW 12.7 mph - N/A   Clear
6:50 AM 23.0 °F 10.6 °F 12.2 °F 63% 30.30 in - NW 13.8 mph - N/A   Clear
7:50 AM 24.8 °F 11.9 °F 12.2 °F 59% 30.30 in 6.2 mi NW 16.1 mph - N/A   Partly Cloudy
8:00 AM 26 °F - 11 °F 39%  in 6 mi NW 16.1 mph - -   Scattered Clouds
8:50 AM 28.4 °F 16.2 °F 12.2 °F 51% 30.30 in 6.2 mi WNW 17.3 mph - N/A   Partly Cloudy
9:50 AM 30.2 °F 19.3 °F 8.6 °F 40% 30.30 in 6.2 mi North 15.0 mph - N/A   Scattered Clouds
10:50 AM 32.0 °F 26.4 °F 8.6 °F 38% 30.30 in 6.2 mi North 5.8 mph - N/A   Scattered Clouds
11:50 AM 33.8 °F 29.6 °F 6.8 °F 32% 30.30 in 6.2 mi North 4.6 mph - N/A   Scattered Clouds
12:50 PM 33.8 °F 22.5 °F 8.6 °F 35% 30.27 in 6.2 mi NNW 19.6 mph - N/A   Scattered Clouds
1:50 PM 33.8 °F 22.5 °F 6.8 °F 32% 30.24 in 6.2 mi NW 19.6 mph - N/A   Scattered Clouds
2:00 PM 34 °F - 6 °F 18%  in 6 mi NW 19.6 mph - -   Partly Cloudy
2:50 PM 35.6 °F 26.6 °F 8.6 °F 33% 30.24 in 6.2 mi NW 13.8 mph - N/A   Scattered Clouds
3:50 PM 35.6 °F 26.6 °F 6.8 °F 30% 30.24 in 6.2 mi WNW 13.8 mph - N/A   Partly Cloudy
4:50 PM 33.8 °F 24.3 °F 8.6 °F 35% 30.27 in - West 13.8 mph - N/A   Clear
5:50 PM 30.2 °F 21.9 °F 14.0 °F 51% 30.30 in - WNW 9.2 mph - N/A   Clear
6:50 PM 26.6 °F 17.5 °F 15.8 °F 64% 30.30 in - West 9.2 mph - N/A   Clear
7:50 PM 26.6 °F 19.1 °F 14.0 °F 59% 30.30 in - WNW 6.9 mph - N/A   Clear
8:00 PM 27 °F - 12 °F 40%  in 9 mi WNW 6.9 mph - -  
8:50 PM 26.6 °F - 12.2 °F 55% 30.30 in - West 2.3 mph - N/A   Clear
9:50 PM 23.0 °F - 14.0 °F 68% 30.33 in - ESE 1.2 mph - N/A   Clear
10:50 PM 23.0 °F - 14.0 °F 68% 30.33 in - Variable 1.2 mph - N/A   Clear
11:50 PM 21.2 °F - 14.0 °F 74% 30.33 in - Variable 1.2 mph - N/A   Clear